Time,TemperatureF,DewpointF,PressureIn,WindDirection,WindDirectionDegrees,WindSpeedMPH,WindSpeedGustMPH,Humidity,HourlyPrecipIn,Conditions,Clouds,dailyrainin,SolarRadiationWatts/m^2,SoftwareType,DateUTC
2013-10-07 00:01:00,62.0,18.0,-100.00,SW,219,4.0,9.0,18,0.00,,,0.00,0.000000,,2013-10-07 07:01:00,
2013-10-07 00:42:00,61.0,17.0,-100.00,WSW,252,4.0,7.0,18,0.00,,,0.00,0.000000,,2013-10-07 07:42:00,
2013-10-07 00:52:00,61.0,17.0,-100.00,WSW,252,4.0,7.0,18,0.00,,,0.00,0.000000,,2013-10-07 07:52:00,
2013-10-07 01:03:00,61.0,17.0,-100.00,WSW,252,4.0,7.0,18,0.00,,,0.00,0.000000,,2013-10-07 08:03:00,
2013-10-07 01:42:00,59.0,18.0,-100.00,SW,217,2.0,7.0,20,0.00,,,0.00,0.000000,,2013-10-07 08:42:00,
2013-10-07 01:52:00,59.0,18.0,-100.00,SW,217,2.0,7.0,20,0.00,,,0.00,0.000000,,2013-10-07 08:52:00,
2013-10-07 02:02:00,59.0,18.0,-100.00,SW,217,2.0,7.0,20,0.00,,,0.00,0.000000,,2013-10-07 09:02:00,
2013-10-07 02:43:00,58.0,18.0,-100.00,SW,223,3.0,9.0,21,0.00,,,-99.99,0.000000,,2013-10-07 09:43:00,
2013-10-07 02:53:00,58.0,18.0,-100.00,SW,223,3.0,9.0,21,0.00,,,-99.99,0.000000,,2013-10-07 09:53:00,
2013-10-07 03:03:00,58.0,18.0,-100.00,SW,223,3.0,9.0,21,0.00,,,-99.99,0.000000,,2013-10-07 10:03:00,
2013-10-07 03:23:00,56.0,20.0,-100.00,SW,232,3.0,8.0,24,0.00,,,0.00,0.000000,,2013-10-07 10:23:00,
2013-10-07 03:33:00,56.0,20.0,-100.00,SW,232,3.0,8.0,24,0.00,,,0.00,0.000000,,2013-10-07 10:33:00,
2013-10-07 03:43:00,56.0,20.0,-100.00,SW,232,3.0,8.0,24,0.00,,,0.00,0.000000,,2013-10-07 10:43:00,
2013-10-07 03:53:00,56.0,20.0,-100.00,SW,232,3.0,8.0,24,0.00,,,0.00,0.000000,,2013-10-07 10:53:00,
2013-10-07 04:02:00,56.0,20.0,-100.00,SW,232,3.0,8.0,24,0.00,,,0.00,0.000000,,2013-10-07 11:02:00,
2013-10-07 04:42:00,56.0,19.0,-100.00,SW,216,4.0,8.0,23,0.00,,,0.00,0.000000,,2013-10-07 11:42:00,
2013-10-07 04:52:00,56.0,19.0,-100.00,SW,216,4.0,8.0,23,0.00,,,0.00,0.000000,,2013-10-07 11:52:00,
2013-10-07 05:02:00,56.0,19.0,-100.00,SW,216,4.0,8.0,23,0.00,,,0.00,0.000000,,2013-10-07 12:02:00,
2013-10-07 05:22:00,56.0,19.0,-100.00,SW,217,4.0,8.0,23,0.00,,,-99.99,0.000000,,2013-10-07 12:22:00,
2013-10-07 05:32:00,56.0,19.0,-100.00,SW,217,4.0,8.0,23,0.00,,,-99.99,0.000000,,2013-10-07 12:32:00,
2013-10-07 05:43:00,56.0,19.0,-100.00,SW,217,4.0,8.0,23,0.00,,,-99.99,0.000000,,2013-10-07 12:43:00,
2013-10-07 05:52:00,56.0,19.0,-100.00,SW,217,4.0,8.0,23,0.00,,,-99.99,0.000000,,2013-10-07 12:52:00,
2013-10-07 06:01:00,56.0,19.0,-100.00,SW,217,4.0,8.0,23,0.00,,,-99.99,0.000000,,2013-10-07 13:01:00,
2013-10-07 06:42:00,56.0,20.0,-100.00,SW,226,3.0,10.0,24,0.00,,,-99.99,0.000000,,2013-10-07 13:42:00,
2013-10-07 06:52:00,56.0,20.0,-100.00,SW,226,3.0,10.0,24,0.00,,,-99.99,0.000000,,2013-10-07 13:52:00,
2013-10-07 07:01:00,56.0,20.0,-100.00,SW,226,3.0,10.0,24,0.00,,,-99.99,0.000000,,2013-10-07 14:01:00,
2013-10-07 07:42:00,56.0,20.0,-100.00,SW,229,4.0,8.0,24,0.00,,,0.00,0.000000,,2013-10-07 14:42:00,
2013-10-07 07:52:00,56.0,20.0,-100.00,SW,229,4.0,8.0,24,0.00,,,0.00,0.000000,,2013-10-07 14:52:00,
2013-10-07 08:01:00,56.0,20.0,-100.00,SW,229,4.0,8.0,24,0.00,,,0.00,0.000000,,2013-10-07 15:01:00,
2013-10-07 08:22:00,58.0,19.0,-100.00,SW,232,4.0,9.0,22,0.00,,,0.00,21.000000,,2013-10-07 15:22:00,
2013-10-07 08:33:00,58.0,19.0,-100.00,SW,232,4.0,9.0,22,0.00,,,0.00,21.000000,,2013-10-07 15:33:00,
2013-10-07 08:43:00,58.0,19.0,-100.00,SW,232,4.0,9.0,22,0.00,,,0.00,21.000000,,2013-10-07 15:43:00,
2013-10-07 08:53:00,58.0,19.0,-100.00,SW,232,4.0,9.0,22,0.00,,,0.00,21.000000,,2013-10-07 15:53:00,
2013-10-07 09:03:00,58.0,19.0,-100.00,SW,232,4.0,9.0,22,0.00,,,0.00,21.000000,,2013-10-07 16:03:00,
2013-10-07 09:43:00,65.0,22.0,-100.00,SW,216,2.0,10.0,19,0.00,,,0.00,177.000000,,2013-10-07 16:43:00,
2013-10-07 09:53:00,65.0,22.0,-100.00,SW,216,2.0,10.0,19,0.00,,,0.00,177.000000,,2013-10-07 16:53:00,
2013-10-07 10:02:00,65.0,22.0,-100.00,SW,216,2.0,10.0,19,0.00,,,0.00,177.000000,,2013-10-07 17:02:00,
2013-10-07 12:22:00,82.0,20.0,-100.00,East,91,7.0,13.0,10,-99.99,,,0.00,670.000000,,2013-10-07 19:22:00,
2013-10-07 12:32:00,82.0,20.0,-100.00,East,91,7.0,13.0,10,-99.99,,,0.00,670.000000,,2013-10-07 19:32:00,
2013-10-07 19:42:00,70.0,27.0,-100.00,SSW,210,0.0,9.0,20,-99.99,,,0.00,7.000000,,2013-10-08 02:42:00,
2013-10-07 19:52:00,70.0,27.0,-100.00,SSW,210,0.0,9.0,20,-99.99,,,0.00,7.000000,,2013-10-08 02:52:00,
2013-10-07 20:02:00,70.0,27.0,-100.00,SSW,210,0.0,9.0,20,-99.99,,,0.00,7.000000,,2013-10-08 03:02:00,
2013-10-07 20:04:00,63.0,28.0,-100.00,SW,226,2.0,3.0,26,0.00,,,0.00,0.000000,,2013-10-08 03:04:00,
2013-10-07 20:44:00,63.0,28.0,-100.00,SW,226,2.0,3.0,26,0.00,,,0.00,0.000000,,2013-10-08 03:44:00,
2013-10-07 20:55:00,63.0,28.0,-100.00,SW,226,2.0,3.0,26,0.00,,,0.00,0.000000,,2013-10-08 03:55:00,
2013-10-07 21:43:00,60.0,28.0,-100.00,SW,232,2.0,3.0,29,0.00,,,0.00,0.000000,,2013-10-08 04:43:00,
2013-10-07 21:53:00,60.0,28.0,-100.00,SW,232,2.0,3.0,29,0.00,,,0.00,0.000000,,2013-10-08 04:53:00,
2013-10-07 22:03:00,60.0,28.0,-100.00,SW,232,2.0,3.0,29,0.00,,,0.00,0.000000,,2013-10-08 05:03:00,
2013-10-07 22:22:00,57.0,25.0,-100.00,WSW,248,1.0,5.0,29,0.00,,,0.00,0.000000,,2013-10-08 05:22:00,
2013-10-07 22:34:00,57.0,25.0,-100.00,WSW,248,1.0,5.0,29,0.00,,,0.00,0.000000,,2013-10-08 05:34:00,
2013-10-07 22:42:00,57.0,25.0,-100.00,WSW,248,1.0,5.0,29,0.00,,,0.00,0.000000,,2013-10-08 05:42:00,